This is the latest recevied weather packets stored in our database for station/object W4CKA. If no packets are shown the sender has not sent any weather packets the latest 10 day(s).
| Time | Temp. | Humidity | Pressure | Rain* | Wind** | Luminosity | Snow |
|---|---|---|---|---|---|---|---|
| 1778170666 | 11.11° C | 94% | 1055.8 hPa | 0 mm | - | 76 W/m² | - |
| 1778170064 | 10.56° C | 96% | 1056 hPa | 0 mm | - | 73 W/m² | - |
| 1778169463 | 11.11° C | 97% | 1055.5 hPa | 0 mm | - | 89 W/m² | - |
| 1778168861 | 11.11° C | 97% | 1055.8 hPa | 0 mm | - | 67 W/m² | - |
| 1778168261 | 11.11° C | 97% | 1055.9 hPa | 0 mm | - | 66 W/m² | - |
| 1778167659 | 11.11° C | 97% | 1055.7 hPa | 0 mm | - | 77 W/m² | - |
| 1778167057 | 11.11° C | 97% | 1055.7 hPa | 0.51 mm | - | 84 W/m² | - |
| 1778166457 | 11.11° C | 97% | 1055.5 hPa | 0 mm | - | 79 W/m² | - |
| 1778165856 | 11.11° C | 97% | 1055.7 hPa | 0 mm | - | 102 W/m² | - |
| 1778165255 | 11.67° C | 96% | 1055.7 hPa | 0 mm | - | 66 W/m² | - |
| 1778164655 | 11.11° C | 95% | 1055.3 hPa | 0.51 mm | - | 103 W/m² | - |
| 1778164054 | 11.67° C | 93% | 1055.2 hPa | 0 mm | - | 81 W/m² | - |
| 1778163453 | 11.67° C | 95% | 1055.3 hPa | 0 mm | - | 39 W/m² | - |
| 1778162852 | 11.67° C | 95% | 1055.3 hPa | 0 mm | - | 69 W/m² | - |
| 1778162246 | 12.22° C | 94% | 1055.2 hPa | 0 mm | - | 88 W/m² | - |
| 1778161645 | 12.22° C | 95% | 1054.9 hPa | 0 mm | - | 65 W/m² | - |
| 1778161044 | 12.22° C | 96% | 1054.9 hPa | 0 mm | - | 59 W/m² | - |
| 1778160444 | 12.22° C | 97% | 1055 hPa | 0 mm | - | 76 W/m² | - |
| 1778159844 | 12.22° C | 98% | 1054.8 hPa | 0 mm | - | 57 W/m² | - |
| 1778159243 | 12.22° C | 98% | 1054.9 hPa | 0 mm | - | 109 W/m² | - |
| 1778158640 | 12.22° C | 98% | 1054.9 hPa | 0 mm | - | 69 W/m² | - |
| 1778158039 | 12.22° C | 98% | 1054.8 hPa | 0.51 mm | - | 45 W/m² | - |
| 1778157435 | 12.22° C | 98% | 1055.1 hPa | 1.27 mm | - | 37 W/m² | - |
| 1778156833 | 12.22° C | 98% | 1054.9 hPa | 0 mm | - | 35 W/m² | - |
| 1778156230 | 12.22° C | 98% | 1054.6 hPa | 0 mm | - | 27 W/m² | - |
* Rain latest hour (hover to see other rain measurements)
** Current wind speed in m/s (hover to see current wind gust speed)